Weather History for PANC - January, 2014

Change the Weather History Date:

Tuesday, January 28, 2014

  Actual Average Record
Temperature  
Mean Temperature 37 °F 17 °F  
Max Temperature 44 °F 23 °F 44 °F (2014)
Min Temperature 30 °F 11 °F -25 °F (1989)
Degree Days  
Heating Degree Days 28    
Month to date heating degree days 971  
Since 1 July heating degree days 5330  
Cooling Degree Days 0    
Month to date cooling degree days 0  
Year to date cooling degree days 0  
Moisture  
Dew Point 32 °F    
Average Humidity 78    
Maximum Humidity 85    
Minimum Humidity 70    
Precipitation  
Precipitation T in 0.02 in 0.46 in (1992)
Month to date precipitation 1.37 0.65  
Year to date precipitation 1.37 0.65  
Snow  
Snow 0.00 in 0.40 in 7.50 in (1970)
Month to date snowfall 9.2 10.1  
Since 1 July snowfall 43.5 48.2  
Snow Depth 0.00 in    
Sea Level Pressure  
Sea Level Pressure 29.98 in    
Wind  
Wind Speed 5 mph (SE)    
Max Wind Speed 16 mph    
Max Gust Speed 31 mph    
Visibility 10 miles    
Events Rain    
T = Trace of Precipitation, MM = Missing Value Source: NWS Daily Summary

Daily Weather History Graph

Daily Weather History Graph

Search for Another Location

Airport or City:

Trip Planner

Search our weather history database for the weather conditions in past years. The results will help you decide how hot, cold, wet, or windy it might be!

Date:

Astronomy

Jan. 28, 2014 Rise Set
Actual Time 9:29 AM AKST 4:57 PM AKST
Civil Twilight 8:38 AM AKST 5:48 PM AKST
Nautical Twilight 7:45 AM AKST 6:41 PM AKST
Astronomical Twilight 6:54 AM AKST 7:32 PM AKST
Moon 7:33 AM AKST (1/28) 2:48 PM AKST (1/28)
Length of Visible Light 9h 09m
Length of Day
7h 27m
Waning Crescent, 6% of the Moon is Illuminated
Jan 28
Waning Crescent
Jan 30
New
Feb 6
First Quarter
Feb 14
Full
Feb 22
Last Quarter

Hourly Weather History & Observations

Time (AKST) Temp. Windchill Dew Point Humidity Pressure Visibility Wind Dir Wind Speed Gust Speed Precip Events Conditions
12:53 AM 37.9 °F 35.5 °F 32.0 °F 79% 29.87 in 10.0 mi East 3.5 mph - N/A   Mostly Cloudy
1:53 AM 39.0 °F 34.8 °F 32.0 °F 76% 29.88 in 10.0 mi West 5.8 mph - N/A   Mostly Cloudy
2:53 AM 37.9 °F 33.5 °F 32.0 °F 79% 29.89 in 10.0 mi South 5.8 mph - N/A   Overcast
3:53 AM 37.9 °F 35.5 °F 34.0 °F 86% 29.90 in 10.0 mi South 3.5 mph - 0.00 in   Overcast
4:53 AM 37.9 °F - 32.0 °F 79% 29.91 in 10.0 mi Calm Calm - N/A   Overcast
5:53 AM 42.1 °F 36.6 °F 35.1 °F 76% 29.91 in 10.0 mi South 9.2 mph - N/A   Overcast
6:53 AM 39.9 °F 33.9 °F 34.0 °F 79% 29.93 in 10.0 mi SSE 9.2 mph - 0.00 in   Overcast
7:53 AM 35.1 °F 29.3 °F 32.0 °F 89% 29.94 in 10.0 mi East 6.9 mph - 0.00 in Rain Light Rain
8:53 AM 37.0 °F 34.5 °F 33.1 °F 86% 29.95 in 10.0 mi East 3.5 mph - 0.00 in Rain Light Rain
9:53 AM 39.9 °F 36.7 °F 33.1 °F 77% 29.97 in 10.0 mi SE 4.6 mph - 0.00 in Rain Light Rain
10:53 AM 42.1 °F 37.7 °F 33.1 °F 70% 29.98 in 10.0 mi East 6.9 mph - 0.00 in   Mostly Cloudy
11:53 AM 42.1 °F 35.2 °F 34.0 °F 73% 29.99 in 10.0 mi SE 12.7 mph - N/A   Mostly Cloudy
12:53 PM 43.0 °F 36.4 °F 34.0 °F 71% 29.99 in 10.0 mi SSE 12.7 mph 24.2 mph N/A   Mostly Cloudy
1:53 PM 43.0 °F 36.4 °F 34.0 °F 71% 30.00 in 10.0 mi South 12.7 mph 19.6 mph N/A   Mostly Cloudy
2:53 PM 43.0 °F 35.4 °F 33.1 °F 68% 30.01 in 10.0 mi SSE 16.1 mph 25.3 mph N/A   Scattered Clouds
3:53 PM 39.0 °F 36.8 °F 30.9 °F 73% 30.01 in 10.0 mi East 3.5 mph - N/A   Scattered Clouds
4:53 PM 37.0 °F - 30.9 °F 79% 30.02 in 10.0 mi Calm Calm - N/A   Mostly Cloudy
5:53 PM 39.0 °F - 30.9 °F 73% 30.02 in 10.0 mi Calm Calm - N/A   Mostly Cloudy
6:53 PM 35.1 °F - 30.0 °F 82% 30.03 in 10.0 mi Calm Calm - N/A   Scattered Clouds
7:53 PM 39.0 °F - 30.0 °F 70% 30.05 in 10.0 mi Calm Calm - N/A   Scattered Clouds
8:53 PM 37.0 °F 33.3 °F 28.9 °F 73% 30.04 in 10.0 mi SSE 4.6 mph - N/A   Partly Cloudy
9:53 PM 32.0 °F 28.7 °F 28.0 °F 85% 30.06 in 10.0 mi Variable 3.5 mph - N/A   Clear
10:53 PM 32.0 °F - 28.9 °F 88% 30.07 in 10.0 mi Calm Calm - N/A   Partly Cloudy
11:53 PM 32.0 °F - 28.0 °F 85% 30.06 in 10.0 mi Calm Calm - N/A   Partly Cloudy